Weather History for Friday Harbor, WA

Change the Weather History Date:

Sunday, February 9, 2014

  Actual Average Record
Temperature  
Mean Temperature 35 °F -  
Max Temperature 37 °F 45 °F 50 °F (2000)
Min Temperature 33 °F 34 °F 27 °F (2011)
Degree Days  
Heating Degree Days 30    
Moisture  
Dew Point 29 °F    
Average Humidity 80    
Maximum Humidity 92    
Minimum Humidity 59    
Precipitation  
Precipitation 0.00 in - - ()
Sea Level Pressure  
Sea Level Pressure 30.08 in    
Wind  
Wind Speed 4 mph (ENE)    
Max Wind Speed 8 mph    
Max Gust Speed -    
Visibility 10 miles    
Events Snow    
Averages and records for this station are not official NWS values.
T = Trace of Precipitation, MM = Missing Value Source: NWS Daily Summary

Daily Weather History Graph

Daily Weather History Graph

Search for Another Location

Airport:

Trip Planner

Search our weather history database for the weather conditions in past years. The results will help you decide how hot, cold, wet, or windy it might be!

Date:

Astronomy

Feb. 09, 2014 Rise Set
Actual Time 7:29 AM PST 5:24 PM PST
Civil Twilight 6:56 AM PST 5:56 PM PST
Nautical Twilight 6:19 AM PST 6:34 PM PST
Astronomical Twilight 5:43 AM PST 7:10 PM PST
Moon 12:59 PM PST (2/9) 3:47 AM PST (2/9)
Length of Visible Light 11h 00m
Length of Day
9h 54m
Waxing Gibbous, 78% of the Moon is Illuminated
Feb 9
Waxing Gibbous
Feb 14
Full
Feb 22
Last Quarter
Mar 1
New
Mar 8
First Quarter

Hourly Weather History & Observations

Time (PST) Temp. Windchill Dew Point Humidity Pressure Visibility Wind Dir Wind Speed Gust Speed Precip Events Conditions
12:53 AM 34.0 °F - 21.0 °F 59% 29.99 in 10.0 mi Calm Calm - N/A   Overcast
1:53 AM 35.1 °F 31.0 °F 28.0 °F 76% 30.01 in 10.0 mi South 4.6 mph - N/A   Overcast
2:53 AM 35.1 °F 32.2 °F 28.9 °F 78% 30.02 in 10.0 mi South 3.5 mph - N/A   Overcast
3:53 AM 35.1 °F 30.1 °F 28.9 °F 78% 30.05 in 10.0 mi ESE 5.8 mph - N/A   Overcast
4:04 AM 35.1 °F 29.3 °F 28.9 °F 78% 30.05 in 10.0 mi ESE 6.9 mph - N/A   Overcast
4:53 AM 35.1 °F 30.1 °F 28.9 °F 78% 30.06 in 10.0 mi ESE 5.8 mph - N/A   Overcast
5:02 AM 35.1 °F 28.6 °F 28.9 °F 78% 30.06 in 10.0 mi ESE 8.1 mph - N/A   Overcast
5:39 AM 34.0 °F 28.0 °F 27.0 °F 75% 30.06 in 10.0 mi ESE 6.9 mph - N/A   Overcast
5:53 AM 34.0 °F 27.2 °F 28.0 °F 79% 30.06 in 10.0 mi ESE 8.1 mph - N/A   Overcast
6:02 AM 34.0 °F 28.0 °F 28.9 °F 82% 30.06 in 10.0 mi East 6.9 mph - N/A   Overcast
6:42 AM 33.1 °F 26.1 °F 28.0 °F 82% 30.05 in 10.0 mi East 8.1 mph - N/A   Overcast
6:53 AM 34.0 °F 28.8 °F 28.0 °F 79% 30.06 in 10.0 mi East 5.8 mph - N/A   Overcast
6:59 AM 34.0 °F 29.8 °F 28.0 °F 79% 30.06 in 10.0 mi East 4.6 mph - N/A   Overcast
7:51 AM 33.8 °F 28.6 °F 28.4 °F 81% 30.07 in 10.0 mi East 5.8 mph - N/A   Overcast
7:53 AM 34.0 °F 29.8 °F 28.9 °F 82% 30.08 in 10.0 mi ENE 4.6 mph - N/A   Overcast
8:53 AM 35.1 °F 31.0 °F 28.9 °F 78% 30.09 in 10.0 mi ENE 4.6 mph - N/A   Overcast
9:53 AM 35.1 °F 31.0 °F 28.9 °F 78% 30.10 in 10.0 mi ENE 4.6 mph - N/A   Overcast
10:17 AM 36.0 °F 30.3 °F 30.0 °F 79% 30.10 in 10.0 mi ESE 6.9 mph - N/A   Overcast
10:32 AM 36.0 °F 30.3 °F 30.0 °F 79% 30.10 in 10.0 mi East 6.9 mph - N/A   Overcast
10:53 AM 36.0 °F 30.3 °F 30.0 °F 79% 30.11 in 10.0 mi East 6.9 mph - N/A   Overcast
11:53 AM 37.0 °F 33.3 °F 28.9 °F 73% 30.12 in 10.0 mi NE 4.6 mph - N/A   Overcast
12:53 PM 37.9 °F 33.5 °F 28.9 °F 70% 30.11 in 10.0 mi East 5.8 mph - N/A   Overcast
1:53 PM 37.0 °F 34.5 °F 28.9 °F 73% 30.10 in 10.0 mi ENE 3.5 mph - 0.00 in Snow Light Snow
2:53 PM 37.9 °F 35.5 °F 28.9 °F 70% 30.10 in 10.0 mi NE 3.5 mph - 0.00 in   Overcast
3:53 PM 37.9 °F 34.4 °F 28.9 °F 70% 30.09 in 10.0 mi ENE 4.6 mph - N/A   Overcast
4:53 PM 37.0 °F 33.3 °F 28.9 °F 73% 30.09 in 10.0 mi NNE 4.6 mph - N/A   Overcast
5:53 PM 36.0 °F 33.3 °F 28.9 °F 76% 30.09 in 10.0 mi NNE 3.5 mph - N/A   Overcast
6:53 PM 36.0 °F 32.1 °F 30.0 °F 79% 30.09 in 10.0 mi NNE 4.6 mph - N/A   Overcast
7:53 PM 36.0 °F - 30.0 °F 79% 30.09 in 10.0 mi Calm Calm - N/A   Overcast
8:53 PM 36.0 °F 33.3 °F 30.0 °F 79% 30.09 in 6.0 mi North 3.5 mph - 0.00 in Snow Light Snow
9:25 PM 34.0 °F - 30.9 °F 89% 30.10 in 5.0 mi Calm Calm - 0.00 in Snow Light Snow
9:53 PM 34.0 °F 31.0 °F 32.0 °F 92% 30.09 in 10.0 mi Variable 3.5 mph - 0.00 in   Overcast
10:04 PM 34.0 °F - 32.0 °F 92% 30.09 in 9.0 mi Calm Calm - N/A   Overcast
10:15 PM 34.0 °F 28.8 °F 32.0 °F 92% 30.08 in 10.0 mi North 5.8 mph - N/A   Overcast
10:26 PM 34.0 °F 28.8 °F 32.0 °F 92% 30.08 in 10.0 mi North 5.8 mph - N/A   Overcast
10:53 PM 35.1 °F 32.2 °F 33.1 °F 92% 30.09 in 10.0 mi Variable 3.5 mph - N/A   Overcast
11:41 PM 35.1 °F 31.0 °F 33.1 °F 92% 30.07 in 10.0 mi North 4.6 mph - N/A   Overcast
11:53 PM 35.1 °F - 33.1 °F 92% 30.08 in 10.0 mi Calm Calm - N/A   Overcast